This demonstration page uses our WeatherBlox Daily Observations layout. Learn more.

Left ArrowRight Arrow

Hourly Observations for January 19, 2020

Temp ( °F °C ) Dew Point ( °F °C ) Humidity (%) Winds ( mph kmh ) Pressure ( in mb ) Visibility ( mi km ) Precip ( " mm )
12:53 am 00:53 Cloudy 27 -2.8 19 -7.2 72 72 WNW 16 26 30.06 1018 10 16 0.00 0.00
1:53 am 01:53 Cloudy with Light Snow 26 -3.3 17 -8.3 69 69 W 15 24 30.07 1018 9 14 0.00 0.00
2:11 am 02:11 Windy with Snow Likely 25 -3.9 14 -10 63 63 W 21 33 30.10 1019 10 16 0.00 0.00
2:53 am 02:53 Cloudy 25 -3.9 14 -10 63 63 W 16 26 30.09 1019 10 16 0.00 0.00
3:20 am 03:20 Cloudy 25 -3.9 15 -9.4 66 66 W 14 22 30.11 1020 10 16 0.00 0.00
3:53 am 03:53 Cloudy 25 -3.9 15 -9.4 66 66 W 13 20 30.09 1019 10 16 0.00 0.00
4:32 am 04:32 Mostly Cloudy 22 -5.6 11 -11.7 63 63 W 15 24 30.15 1021 10 16 0.00 0.00
4:53 am 04:53 Mostly Cloudy 22 -5.6 11 -11.7 63 63 W 17 28 30.13 1020 10 16 0.00 0.00
5:48 am 05:48 Cloudy 19 -7 9 -13 63 63 WNW 16 26 30.20 1023 10 16 0.00 0.00
5:53 am 05:53 Cloudy 19 -7.2 9 -12.8 65 65 W 15 24 30.16 1022 10 16 0.00 0.00
6:34 am 06:34 Cloudy 19 -7.2 9 -12.8 65 65 WNW 13 20 30.21 1023 10 16 0.00 0.00
6:53 am 06:53 Cloudy 19 -7.2 9 -12.8 65 65 W 14 22 30.19 1022 10 16 0.00 0.00
7:53 am 07:53 Cloudy 19 -7.2 9 -12.8 65 65 W 9 15 30.21 1023 10 16 0.00 0.00
8:53 am 08:53 Cloudy 18 -7.8 9 -12.8 68 68 W 13 20 30.24 1024 9 14 0.00 0.00
9:25 am 09:25 Cloudy with Light Snow 17 -8.3 9 -12.8 70 70 W 14 22 30.28 1025 2 3 0.00 0.00
9:35 am 09:35 Cloudy with Light Snow 17 -8.3 9 -12.8 70 70 W 10 17 30.29 1026 5 8 0.00 0.00
9:53 am 09:53 Cloudy with Light Snow 17 -8.3 9 -12.8 70 70 W 10 17 30.26 1025 3 4 0.00 0.00
10:08 am 10:08 Cloudy with Light Snow 17 -8.3 8 -13.3 68 68 W 15 24 30.30 1026 4 6 0.00 0.00
10:53 am 10:53 Cloudy with Light Snow 17 -8.3 8 -13.3 68 68 W 15 24 30.28 1026 5 8 0.00 0.00
11:53 am 11:53 Cloudy 16 -8.9 6 -14.4 65 65 WNW 13 20 30.31 1026 9 14 0.00 0.00
12:53 pm 12:53 Cloudy 17 -8.3 7 -13.9 64 64 W 9 15 30.32 1027 8 13 0.00 0.00
1:53 pm 13:53 Cloudy 16 -8.9 6 -14.4 65 65 W 13 20 30.32 1027 9 14 0.00 0.00
2:53 pm 14:53 Cloudy 16 -8.9 6 -14.4 65 65 W 10 17 30.33 1027 10 16 0.00 0.00
3:53 pm 15:53 Cloudy 17 -8.3 7 -13.9 64 64 W 10 17 30.36 1028 10 16 0.00 0.00
4:53 pm 16:53 Cloudy 16 -8.9 6 -14.4 65 65 WNW 13 20 30.40 1029 10 16 0.00 0.00
5:53 pm 17:53 Cloudy 16 -8.9 7 -13.9 67 67 W 7 11 30.42 1030 10 16 0.00 0.00
6:53 pm 18:53 Cloudy 16 -8.9 7 -13.9 67 67 W 12 19 30.44 1031 10 16 0.00 0.00
7:53 pm 19:53 Cloudy with Light Snow 16 -8.9 8 -13.3 71 71 W 8 13 30.46 1032 6 10 0.00 0.00
8:53 pm 20:53 Cloudy 16 -8.9 7 -13.9 67 67 W 8 13 30.48 1032 10 16 0.00 0.00
9:44 pm 21:44 Cloudy with Light Snow 15 -9.4 8 -13.3 74 74 WNW 10 17 30.51 1033 4 6 0.00 0.00
9:53 pm 21:53 Cloudy with Light Snow 15 -9.4 8 -13.3 74 74 WNW 12 19 30.49 1032 5 8 0.00 0.00
10:53 pm 22:53 Cloudy 16 -8.9 8 -13.3 71 71 WNW 7 11 30.49 1033 10 16 0.00 0.00
11:53 pm 23:53 Cloudy 16 -8.9 9 -12.8 74 74 VRB 5 7 30.50 1033 8 13 0.00 0.00

Powered by AerisWeather